User: anonymous   Login
Location: Unspecified
(0.0000°N, 0.0000°E)
Time: 10:00:11
(UTC+00:00)
Language:

STARLINK-34897 - Orbit

View from above orbital plane
View from above orbital plane
View from above satellite
View from above satellite

Ground track
Ground track

The orbit is defined by the following mean orbital elements,

1 65212U          26145.45944716 +.00000000 +00000-0 +45028-3 0 00009
2 65212  53.1567 155.4765 0000994  73.9695 286.1417 15.34404540    08
Epoch (UTC): 25 May 2026 11:01:36
Eccentricity: 0.0000994
inclination: 53.1567°
perigee height: 462 km
apogee height: 463 km
right ascension of ascending node: 155.4765°
argument of perigee: 73.9695°
revolutions per day: 15.34404540
mean anomaly at epoch: 286.1417°

The dashed part of the orbit path shows where the satellite is in the earth's shadow,  

DLR